Meteo Giornale » Osservazioni meteo Italia » Napoli-Capodichino

ore: 21:20 - Osservazioni Meteo Napoli-Capodichino
Lat. 40° 51' N Lon. 14° 18' E Alt. 88 metri s.l.m.

sereno

28 °C

Sereno

Temp. 24 Ore

27 °C

32 °C

Nord

5.5 Km/h

Dew point 19 °C

Umidità 58 %

Visibilità  10 Km

Il sole sorge alle ore 06:28

Il sole tramonta alle ore 19:37

Data e Ora Cielo e Fenomeni T °C DP °C Um. % Pres. hPa Vis. km Vento km/h
Oggi h: 21:20 sereno Sereno 28 19 58 1015 10 N 5.5
Oggi h: 20:50 sereno Sereno 28 19 58 1015 10 N 9.3
Oggi h: 20:20 sereno Sereno 28 20 61 1015 10 O/SO 9.3
Oggi h: 19:50 sereno Sereno 28 21 65 1015 10 O/SO 11.1
Oggi h: 19:20 sereno Sereno 30 19 51 1015 10 O/NO 11.1
Oggi h: 18:50 sereno Sereno 30 20 55 1015 10 O 14.8
Oggi h: 17:50 sereno Sereno 31 20 52 1015 10 O 14.8
Oggi h: 17:20 sereno Sereno 32 21 52 1015 10 O 16.7
Oggi h: 16:50 sereno Sereno 32 21 52 1015 10 S 13
Oggi h: 09:20 sereno Sereno 29 23 70 1014 10 N 5.5
Oggi h: 08:50 sereno Sereno 29 23 70 1014 10 N 5.5
Oggi h: 08:20 poco_nuvoloso Poco Nuvoloso 28 23 74 1015 10 N 7.4
Oggi h: 07:50 poco_nuvoloso Poco Nuvoloso 27 23 78 1015 10 O 9.3
Oggi h: 07:20 poco_nuvoloso Poco Nuvoloso 27 23 78 1015 10 O 9.3
Oggi h: 06:50 nuvoloso Nuvoloso 27 23 78 1014 10 O 11.1
Oggi h: 06:20 nuvoloso Nuvoloso 27 23 78 1014 10 O 13
Oggi h: 05:50 poco_nuvoloso Poco Nuvoloso 27 23 78 1014 10 O 14.8
Oggi h: 05:20 sereno Sereno 27 23 78 1014 10 O/SO 11.1
Oggi h: 04:50 sereno Sereno 28 23 74 1015 10 O/SO 11.1
Oggi h: 04:20 sereno Sereno 28 23 74 1015 10 O/SO 11.1
Oggi h: 03:50 sereno Sereno 28 23 74 1015 10 SO 14.8
Oggi h: 03:20 sereno Sereno 28 24 78 1015 10 SO 9.3
Oggi h: 02:50 sereno Sereno 28 24 78 1015 10 SO 11.1
Oggi h: 02:20 sereno Sereno 28 24 78 1015 10 S/SO 9.3
Oggi h: 01:50 sereno Sereno 28 25 83 1015 10 SO 11.1
Oggi h: 01:20 sereno Sereno 28 24 78 1014 10 S/SO 7.4
Oggi h: 00:50 sereno Sereno 28 24 78 1014 10 S/SO 7.4
Oggi h: 00:20 sereno Sereno 28 24 78 1014 10 N 5.5
Ieri h: 23:50 sereno Sereno 28 25 83 1014 10 N 3.7
Ieri h: 23:20 sereno Sereno 28 25 83 1014 10 S/SO 7.4
Ieri h: 22:50 sereno Sereno 28 24 78 1014 10 S/SO 7.4
Ieri h: 22:20 sereno Sereno 28 25 83 1014 10 S/SO 7.4
Ieri h: 21:50 sereno Sereno 29 25 79 1014 10 N 3.7